datetime,pool elevation
1984-03-20,6698.0
1984-03-21,6704.5
1984-03-22,6715.0
1984-03-23,6719.8
1984-03-24,6723.7
1984-03-25,6727.8
1984-03-26,6731.1
1984-03-27,6734.0
1984-03-28,6736.0
1984-03-29,6737.8
1984-03-30,6739.6
1984-03-31,6741.35
1984-04-01,6743.1
1984-04-02,6744.6
1984-04-03,6746.1
1984-04-04,6747.45
1984-04-05,6748.8
1984-04-06,6750.85
1984-04-07,6752.9
1984-04-08,6756.75
1984-04-09,6760.6
1984-04-10,6760.4
1984-04-11,6760.2
1984-04-12,6759.2
1984-04-13,6760.4
1984-04-14,6761.8
1984-04-15,6762.4
1984-04-16,6763.5
1984-04-17,6763.5
1984-04-18,6762.9
1984-04-19,6764.3
1984-04-20,6762.0
1984-04-21,6762.0
1984-04-22,6761.5
1984-04-23,6760.9
1984-04-24,6761.8
1984-04-25,6764.7
1984-04-26,6764.5
1984-04-27,6763.2
1984-04-28,6762.6
1984-04-29,6763.3
1984-04-30,6764.0
1984-05-01,6764.8
1984-05-02,6764.9
1984-05-03,6765.2
1984-05-04,6765.9
1984-05-05,6767.5
1984-05-06,6767.3
1984-05-07,6766.0
1984-05-08,6765.8
1984-05-09,6766.3
1984-05-10,6767.4
1984-05-11,6768.1
1984-05-12,6770.5
1984-05-13,6774.1
1984-05-14,6777.0
1984-05-15,6781.4
1984-05-16,6787.2
1984-05-17,6791.5
1984-05-18,6793.8
1984-05-19,6794.9
1984-05-20,6795.4
1984-05-21,6797.0
1984-05-22,6799.4
1984-05-23,6801.3
1984-05-24,6804.1
1984-05-25,6806.5
1984-05-26,6808.3
1984-05-27,6809.0
1984-05-28,6808.9
1984-05-29,6808.2
1984-05-30,6806.5
1984-05-31,6806.3
1984-06-01,6804.6
1984-06-02,6804.0
1984-06-03,6802.8
1984-06-04,6801.7
1984-06-05,6801.2
1984-06-06,6802.1
1984-06-07,6801.9
1984-06-08,6802.5
1984-06-09,6801.8
1984-06-10,6801.6
1984-06-11,6800.6
1984-06-12,6800.3
1984-06-13,6800.9
1984-06-14,6801.4
1984-06-15,6801.6
1984-06-16,6802.0
1984-06-17,6802.1
1984-06-18,6801.7
1984-06-19,6801.4
1984-06-20,6801.3
1984-06-21,6801.5
1984-06-22,6801.4
1984-06-23,6801.1
1984-06-24,6800.6
1984-06-25,6800.2
1984-06-26,6800.6
1984-06-27,6801.2
1984-06-28,6801.5
1984-06-29,6801.2
1984-06-30,6801.1
1984-07-01,6801.0
1984-07-02,6800.6
1984-07-03,6800.5
1984-07-04,6800.3
1984-07-05,6800.3
1984-07-06,6800.1
1984-07-07,6800.0
1984-07-08,6799.95
1984-07-09,6799.84
1984-07-10,6799.9
1984-07-11,6799.85
1984-07-12,6799.74
1984-07-13,6799.63
1984-07-14,6799.55
1984-07-15,6799.5
1984-07-16,6799.4
1984-07-17,6799.28
1984-07-18,6799.2
1984-07-19,6799.05
1984-07-20,6798.9
1984-07-21,6798.88
1984-07-22,6798.69
1984-07-23,6798.5
1984-07-24,6798.44
1984-07-25,6798.33
1984-07-26,6798.14
1984-07-27,6798.13
1984-07-28,6798.0
1984-07-29,6797.97
1984-07-30,6797.9
1984-07-31,6798.05
1984-08-01,6797.93
1984-08-02,6797.83
1984-08-03,6797.46
1984-08-04,6797.0
1984-08-05,6796.68
1984-08-06,6796.28
1984-08-07,6796.05
1984-08-08,6795.7
1984-08-09,6795.32
1984-08-10,6794.92
1984-08-11,6794.55
1984-08-12,6794.15
1984-08-13,6793.92
1984-08-14,6793.62
1984-08-15,6793.29
1984-08-16,6793.1
1984-08-17,6792.42
1984-08-18,6791.57
1984-08-19,6791.17
1984-08-20,6790.1
1984-08-21,6789.13
1984-08-22,6788.38
1984-08-23,6787.29
1984-08-24,6786.33
1984-08-25,6786.33
1984-08-26,6786.32
1984-08-27,6785.14
1984-08-28,6785.77
1984-08-29,6785.32
1984-08-30,6785.02
1984-08-31,6784.9
1984-09-01,6784.83
1984-09-02,6784.83
1984-09-03,6784.89
1984-09-04,6784.78
1984-09-05,6784.67
1984-09-06,6784.52
1984-09-07,6783.96
1984-09-08,6783.44
1984-09-09,6782.97
1984-09-10,6782.8
1984-09-11,6782.6
1984-09-12,6782.53
1984-09-13,6782.34
1984-09-14,6782.2
1984-09-15,6782.12
1984-09-16,6781.9
1984-09-17,6782.05
1984-09-18,6782.02
1984-09-19,6781.91
1984-09-20,6781.83
1984-09-21,6781.7
1984-09-22,6781.55
1984-09-23,6781.44
1984-09-24,6781.36
1984-09-25,6781.3
1984-09-26,6781.22
1984-09-27,6781.1
1984-09-28,6781.02
1984-09-29,6781.0
1984-09-30,6780.9
1984-10-01,6780.7998
1984-10-02,6780.68018
1984-10-03,6780.54004
1984-10-04,6780.6001
1984-10-05,6780.5498
1984-10-06,6780.5
1984-10-07,6780.35986
1984-10-08,6780.24023
1984-10-09,6780.1001
1984-10-10,6780.0
1984-10-11,6779.8999
1984-10-12,6779.8501
1984-10-13,6779.8501
1984-10-14,6779.87012
1984-10-15,6779.8999
1984-10-16,6779.7998
1984-10-17,6779.7002
1984-10-18,6779.6499
1984-10-19,6779.6499
1984-10-20,6779.5
1984-10-21,6779.37012
1984-10-22,6779.22998
1984-10-23,6779.1001
1984-10-24,6779.0
1984-10-25,6778.8999
1984-10-26,6778.8501
1984-10-27,6778.75
1984-10-28,6778.6001
1984-10-29,6778.3999
1984-10-30,6778.1499
1984-10-31,6778.1001
1984-11-01,6778.16016
1984-11-02,6777.91992
1984-11-03,6777.89014
1984-11-04,6777.87988
1984-11-05,6777.7002
1984-11-06,6777.6001
1984-11-07,6777.49023
1984-11-08,6777.3999
1984-11-09,6777.2998
1984-11-10,6777.2998
1984-11-11,6777.2998
1984-11-12,6777.2002
1984-11-13,6777.2002
1984-11-14,6777.1499
1984-11-15,6777.2998
1984-11-16,6777.43994
1984-11-17,6777.52979
1984-11-18,6777.66016
1984-11-19,6777.7998
1984-11-20,6777.8501
1984-11-21,6778.20996
1984-11-22,6778.33008
1984-11-23,6778.33008
1984-11-24,6778.33008
1984-11-25,6778.33008
1984-11-26,6778.33008
1984-11-27,6778.4502
1984-11-28,6778.47021
1984-11-29,6778.56982
1984-11-30,6778.68018
1984-12-01,6778.72021
1984-12-02,6778.75
1984-12-03,6778.81006
1984-12-04,6778.97998
1984-12-05,6779.06982
1984-12-06,6779.12012
1984-12-07,6779.20996
1984-12-08,6779.33008
1984-12-09,6779.47021
1984-12-10,6779.5498
1984-12-11,6779.7002
1984-12-12,6779.85986
1984-12-13,6780.0
1984-12-14,6780.14014
1984-12-15,6780.33984
1984-12-16,6780.41016
1984-12-17,6780.5
1984-12-18,6780.56982
1984-12-19,6780.62988
1984-12-20,6780.66992
1984-12-21,6780.70996
1984-12-22,6780.75
1984-12-23,6780.77002
1984-12-24,6780.81006
1984-12-25,6780.85986
1984-12-26,6780.89014
1984-12-27,6781.37988
1984-12-28,6781.5
1984-12-29,6781.6001
1984-12-30,6781.87012
1984-12-31,6782.06006
1985-01-01,6782.1499
1985-01-02,6782.24023
1985-01-03,6782.27002
1985-01-04,6782.29004
1985-01-05,6782.3501
1985-01-06,6782.47021
1985-01-07,6782.56982
1985-01-08,6782.72021
1985-01-09,6782.8501
1985-01-10,6782.93994
1985-01-11,6783.06006
1985-01-12,6783.10986
1985-01-13,6783.16016
1985-01-14,6783.20996
1985-01-15,6783.24023
1985-01-16,6783.25977
1985-01-17,6782.81006
1985-01-18,6782.16992
1985-01-19,6781.3999
1985-01-20,6780.77002
1985-01-21,6780.12012
1985-01-22,6779.41992
1985-01-23,6778.5498
1985-01-24,6778.08984
1985-01-25,6777.22998
1985-01-26,6776.77002
1985-01-27,6775.91016
1985-01-28,6775.22998
1985-01-29,6775.33984
1985-01-30,6775.3999
1985-01-31,6775.43994
1985-02-01,6775.47021
1985-02-02,6775.49023
1985-02-03,6775.50977
1985-02-04,6775.52979
1985-02-05,6775.60986
1985-02-06,6775.87988
1985-02-07,6775.74023
1985-02-08,6775.79004
1985-02-09,6775.85986
1985-02-10,6775.72998
1985-02-11,6776.00977
1985-02-12,6776.02979
1985-02-13,6776.0498
1985-02-14,6776.1001
1985-02-15,6776.1499
1985-02-16,6776.22021
1985-02-17,6776.29004
1985-02-18,6776.37988
1985-02-19,6776.47021
1985-02-20,6776.6001
1985-02-21,6776.7002
1985-02-22,6776.8501
1985-02-23,6776.9502
1985-02-24,6777.06006
1985-02-25,6777.14014
1985-02-26,6777.25
1985-02-27,6777.35986
1985-02-28,6777.5
1985-03-01,6777.68994
1985-03-02,6777.87988
1985-03-03,6778.1001
1985-03-04,6778.31006
1985-03-05,6778.18018
1985-03-06,6778.87988
1985-03-07,6778.8501
1985-03-08,6779.02979
1985-03-09,6779.35986
1985-03-10,6780.70996
1985-03-11,6781.47021
1985-03-12,6784.02002
1985-03-13,6786.04004
1985-03-14,6786.06982
1985-03-15,6785.33984
1985-03-16,6784.58008
1985-03-17,6783.79004
1985-03-18,6783.33984
1985-03-19,6782.87012
1985-03-20,6782.4502
1985-03-21,6782.41016
1985-03-22,6782.12988
1985-03-23,6782.16992
1985-03-24,6781.79004
1985-03-25,6781.58008
1985-03-26,6782.27002
1985-03-27,6783.14014
1985-03-28,6782.95996
1985-03-29,6782.18994
1985-03-30,6781.97021
1985-03-31,6781.68994
1985-04-01,6781.3999
1985-04-02,6781.35986
1985-04-03,6782.75
1985-04-04,6784.2998
1985-04-05,6782.99023
1985-04-06,6783.81982
1985-04-07,6785.2002
1985-04-08,6786.52979
1985-04-09,6787.72021
1985-04-10,6788.9502
1985-04-11,6790.04004
1985-04-12,6791.70996
1985-04-13,6793.31006
1985-04-14,6795.83008
1985-04-15,6799.93994
1985-04-16,6801.93018
1985-04-17,6802.8999
1985-04-18,6806.02979
1985-04-19,6808.31982
1985-04-20,6810.22021
1985-04-21,6811.93018
1985-04-22,6814.04004
1985-04-23,6815.83008
1985-04-24,6818.04004
1985-04-25,6820.12012
1985-04-26,6822.06982
1985-04-27,6823.33008
1985-04-28,6824.66992
1985-04-29,6826.0
1985-04-30,6828.10986
1985-05-01,6830.50977
1985-05-02,6832.31982
1985-05-03,6834.04004
1985-05-04,6836.1499
1985-05-05,6837.70996
1985-05-06,6838.62988
1985-05-07,6839.27979
1985-05-08,6840.04004
1985-05-09,6840.89014
1985-05-10,6841.68018
1985-05-11,6842.85986
1985-05-12,6843.3999
1985-05-13,6843.62012
1985-05-14,6844.47998
1985-05-15,6844.97021
1985-05-16,6845.39014
1985-05-17,6845.83008
1985-05-18,6846.47998
1985-05-19,6846.95996
1985-05-20,6847.3999
1985-05-21,6847.79004
1985-05-22,6848.04004
1985-05-23,6848.33008
1985-05-24,6848.58984
1985-05-25,6849.2002
1985-05-26,6849.60986
1985-05-27,6850.31982
1985-05-28,6851.06982
1985-05-29,6851.85986
1985-05-30,6852.66992
1985-05-31,6853.54004
1985-06-01,6854.12012
1985-06-02,6854.47998
1985-06-03,6855.18018
1985-06-04,6855.24023
1985-06-05,6855.27002
1985-06-06,6855.39014
1985-06-07,6855.66992
1985-06-08,6855.93994
1985-06-09,6855.2002
1985-06-10,6855.56006
1985-06-11,6855.25
1985-06-12,6855.00977
1985-06-13,6855.3999
1985-06-14,6855.66992
1985-06-15,6855.66992
1985-06-16,6855.64014
1985-06-17,6855.45996
1985-06-18,6855.39014
1985-06-19,6855.39014
1985-06-20,6855.60986
1985-06-21,6855.6499
1985-06-22,6855.72021
1985-06-23,6855.6499
1985-06-24,6855.54004
1985-06-25,6855.6001
1985-06-26,6855.74023
1985-06-27,6855.60986
1985-06-28,6855.6001
1985-06-29,6855.35986
1985-06-30,6855.85986
1985-07-01,6855.85986
1985-07-02,6855.87012
1985-07-03,6855.77979
1985-07-04,6855.7002
1985-07-05,6855.58984
1985-07-06,6855.45996
1985-07-07,6855.37012
1985-07-08,6855.29004
1985-07-09,6855.18018
1985-07-10,6854.91992
1985-07-11,6854.87012
1985-07-12,6854.7998
1985-07-13,6854.72998
1985-07-14,6854.62012
1985-07-15,6854.87012
1985-07-16,6854.52979
1985-07-17,6854.47021
1985-07-18,6854.41016
1985-07-19,6854.41016
1985-07-20,6854.3999
1985-07-21,6854.37988
1985-07-22,6854.3501
1985-07-23,6854.3501
1985-07-24,6854.3501
1985-07-25,6854.37012
1985-07-26,6854.3501
1985-07-27,6854.3501
1985-07-28,6854.2998
1985-07-29,6854.3501
1985-07-30,6854.3501
1985-07-31,6854.37988
1985-08-01,6854.37988
1985-08-02,6854.37988
1985-08-03,6854.2998
1985-08-04,6854.2998
1985-08-05,6854.27979
1985-08-06,6854.18994
1985-08-07,6854.0
1985-08-08,6853.7998
1985-08-09,6853.6001
1985-08-10,6853.68018
1985-08-11,6853.64014
1985-08-12,6853.47998
1985-08-13,6853.45996
1985-08-14,6853.35986
1985-08-15,6853.2002
1985-08-16,6853.14014
1985-08-17,6852.99023
1985-08-18,6852.93994
1985-08-19,6852.83984
1985-08-20,6852.75977
1985-08-21,6852.74023
1985-08-22,6852.77002
1985-08-23,6852.75
1985-08-24,6852.7002
1985-08-25,6852.64014
1985-08-26,6852.56982
1985-08-27,6852.52002
1985-08-28,6852.47021
1985-08-29,6852.49023
1985-08-30,6852.47998
1985-08-31,6852.47998
1985-09-01,6852.3999
1985-09-02,6852.49023
1985-09-03,6852.4502
1985-09-04,6852.54004
1985-09-05,6852.50977
1985-09-06,6852.47021
1985-09-07,6852.43994
1985-09-08,6852.43018
1985-09-09,6852.43018
1985-09-10,6852.43018
1985-09-11,6852.37012
1985-09-12,6852.3999
1985-09-13,6852.5
1985-09-14,6852.6001
1985-09-15,6852.58008
1985-09-16,6852.54004
1985-09-17,6852.58008
1985-09-18,6852.58984
1985-09-19,6852.7998
1985-09-20,6853.2998
1985-09-21,6853.49023
1985-09-22,6853.62988
1985-09-23,6853.68994
1985-09-24,6853.75
1985-09-25,6853.72021
1985-09-26,6853.72021
1985-09-27,6853.72021
1985-09-28,6853.6001
1985-09-29,6853.56006
1985-09-30,6853.41992
1985-10-01,6853.37988
1985-10-02,6853.33984
1985-10-03,6853.31982
1985-10-04,6853.31006
1985-10-05,6853.2998
1985-10-06,6853.6001
1985-10-07,6853.2002
1985-10-08,6853.20996
1985-10-09,6853.2998
1985-10-10,6853.3501
1985-10-11,6853.52002
1985-10-12,6853.75977
1985-10-13,6853.8501
1985-10-14,6854.06982
1985-10-15,6854.18018
1985-10-16,6854.27002
1985-10-17,6854.33008
1985-10-18,6854.41992
1985-10-19,6854.47998
1985-10-20,6854.5498
1985-10-21,6854.60986
1985-10-22,6854.68994
1985-10-23,6854.72998
1985-10-24,6854.74023
1985-10-25,6854.7998
1985-10-26,6854.83984
1985-10-27,6854.87012
1985-10-28,6854.8999
1985-10-29,6854.93994
1985-10-30,6855.0
1985-10-31,6855.02979
1985-11-01,6855.06982
1985-11-02,6855.08008
1985-11-03,6855.12012
1985-11-04,6855.16016
1985-11-05,6855.20996
1985-11-06,6855.18018
1985-11-07,6855.1499
1985-11-08,6855.10986
1985-11-09,6855.10986
1985-11-10,6855.06982
1985-11-11,6855.02979
1985-11-12,6855.00977
1985-11-13,6855.1001
1985-11-14,6855.20996
1985-11-15,6855.2002
1985-11-16,6855.18018
1985-11-17,6855.18994
1985-11-18,6855.20996
1985-11-19,6855.37012
1985-11-20,6855.52979
1985-11-21,6855.6001
1985-11-22,6855.66992
1985-11-23,6855.72021
1985-11-24,6855.77002
1985-11-25,6855.81006
1985-11-26,6855.95996
1985-11-27,6856.12012
1985-11-28,6856.20996
1985-11-29,6856.31006
1985-11-30,6856.41992
1985-12-01,6856.54004
1985-12-02,6856.6499
1985-12-03,6856.72021
1985-12-04,6856.7998
1985-12-05,6856.7998
1985-12-06,6856.81006
1985-12-07,6856.7998
1985-12-08,6856.79004
1985-12-09,6856.77979
1985-12-10,6856.77002
1985-12-11,6856.75
1985-12-12,6856.70996
1985-12-13,6856.66992
1985-12-14,6856.68018
1985-12-15,6856.68994
1985-12-16,6856.7002
1985-12-17,6856.75
1985-12-18,6856.74023
1985-12-19,6856.81982
1985-12-20,6856.8999
1985-12-21,6856.91992
1985-12-22,6856.93994
1985-12-23,6856.97021
1985-12-24,6857.02002
1985-12-25,6857.06982
1985-12-26,6857.12988
1985-12-27,6857.1499
1985-12-28,6857.2002
1985-12-29,6857.25
1985-12-30,6857.29004
1985-12-31,6857.33984
1986-01-01,6857.39014
1986-01-02,6857.43018
1986-01-03,6857.4502
1986-01-04,6857.49023
1986-01-05,6857.52979
1986-01-06,6857.56982
1986-01-07,6857.56982
1986-01-08,6857.58008
1986-01-09,6857.62988
1986-01-10,6857.68018
1986-01-11,6857.72021
1986-01-12,6857.75977
1986-01-13,6857.7998
1986-01-14,6857.81982
1986-01-15,6857.83008
1986-01-16,6857.87012
1986-01-17,6857.91992
1986-01-18,6857.95996
1986-01-19,6858.0
1986-01-20,6858.04004
1986-01-21,6858.06982
1986-01-22,6858.1001
1986-01-23,6858.12988
1986-01-24,6858.16992
1986-01-25,6858.2002
1986-01-26,6858.22998
1986-01-27,6858.25977
1986-01-28,6858.27002
1986-01-29,6858.31982
1986-01-30,6858.35986
1986-01-31,6858.3999
1986-02-01,6858.43994
1986-02-02,6858.47998
1986-02-03,6858.52002
1986-02-04,6858.58008
1986-02-05,6858.60986
1986-02-06,6858.64014
1986-02-07,6858.68018
1986-02-08,6858.70996
1986-02-09,6858.75
1986-02-10,6858.79004
1986-02-11,6858.8501
1986-02-12,6858.8999
1986-02-13,6858.97998
1986-02-14,6859.06982
1986-02-15,6859.14014
1986-02-16,6859.20996
1986-02-17,6859.27979
1986-02-18,6859.33984
1986-02-19,6859.37988
1986-02-20,6859.47021
1986-02-21,6859.56982
1986-02-22,6859.62988
1986-02-23,6859.68994
1986-02-24,6859.75
1986-02-25,6859.97021
1986-02-26,6860.24023
1986-02-27,6860.54004
1986-02-28,6860.8999
1986-03-01,6861.2998
1986-03-02,6861.72998
1986-03-03,6862.06006
1986-03-04,6862.54004
1986-03-05,6863.06982
1986-03-06,6863.66992
1986-03-07,6864.2998
1986-03-08,6864.8999
1986-03-09,6865.5
1986-03-10,6865.93018
1986-03-11,6866.31006
1986-03-12,6866.62012
1986-03-13,6866.8999
1986-03-14,6867.1499
1986-03-15,6867.39014
1986-03-16,6867.58008
1986-03-17,6867.77002
1986-03-18,6868.00977
1986-03-19,6868.20996
1986-03-20,6868.3501
1986-03-21,6868.6001
1986-03-22,6868.83008
1986-03-23,6869.25
1986-03-24,6869.93018
1986-03-25,6870.75
1986-03-26,6871.35986
1986-03-27,6872.2002
1986-03-28,6873.22021
1986-03-29,6874.2002
1986-03-30,6875.3999
1986-03-31,6876.3999
1986-04-01,6877.0
1986-04-02,6879.16992
1986-04-03,6880.22021
1986-04-04,6880.93018
1986-04-05,6881.81982
1986-04-06,6882.77002
1986-04-07,6883.83008
1986-04-08,6884.49023
1986-04-09,6884.93994
1986-04-10,6885.12988
1986-04-11,6885.1499
1986-04-12,6885.16016
1986-04-13,6885.02002
1986-04-14,6885.0498
1986-04-15,6885.25977
1986-04-16,6885.54004
1986-04-17,6885.43994
1986-04-18,6885.2002
1986-04-19,6885.12988
1986-04-20,6885.22998
1986-04-21,6885.52979
1986-04-22,6885.4502
1986-04-23,6885.56006
1986-04-24,6885.33008
1986-04-25,6885.22998
1986-04-26,6885.3501
1986-04-27,6885.29004
1986-04-28,6885.43018
1986-04-29,6885.5498
1986-04-30,6885.58984
1986-05-01,6885.72021
1986-05-02,6885.81006
1986-05-03,6886.06006
1986-05-04,6885.87012
1986-05-05,6885.3501
1986-05-06,6885.3501
1986-05-07,6885.49023
1986-05-08,6885.56006
1986-05-09,6885.68018
1986-05-10,6885.77979
1986-05-11,6885.9502
1986-05-12,6886.08008
1986-05-13,6886.29004
1986-05-14,6886.60986
1986-05-15,6886.87988
1986-05-16,6887.12988
1986-05-17,6887.25
1986-05-18,6887.4502
1986-05-19,6887.8999
1986-05-20,6888.66016
1986-05-21,6889.45996
1986-05-22,6890.24023
1986-05-23,6891.0
1986-05-24,6891.72998
1986-05-25,6892.37988
1986-05-26,6893.22998
1986-05-27,6894.06006
1986-05-28,6894.8501
1986-05-29,6895.50977
1986-05-30,6896.0
1986-05-31,6896.2002
1986-06-01,6896.58984
1986-06-02,6896.91992
1986-06-03,6897.58008
1986-06-04,6898.66992
1986-06-05,6899.5498
1986-06-06,6900.25977
1986-06-07,6900.31982
1986-06-08,6900.16992
1986-06-09,6900.08008
1986-06-10,6900.1499
1986-06-11,6900.1499
1986-06-12,6900.18994
1986-06-13,6900.31982
1986-06-14,6900.41992
1986-06-15,6900.52002
1986-06-16,6900.5498
1986-06-17,6900.56006
1986-06-18,6900.5498
1986-06-19,6900.47021
1986-06-20,6900.45996
1986-06-21,6900.3999
1986-06-22,6900.37012
1986-06-23,6900.56006
1986-06-24,6900.77002
1986-06-25,6901.1499
1986-06-26,6901.47998
1986-06-27,6901.77002
1986-06-28,6901.95996
1986-06-29,6902.00977
1986-06-30,6902.02002
1986-07-01,6901.97021
1986-07-02,6902.1001
1986-07-03,6902.1499
1986-07-04,6902.2998
1986-07-05,6902.45996
1986-07-06,6902.47021
1986-07-07,6902.47021
1986-07-08,6902.52979
1986-07-09,6902.68018
1986-07-10,6902.70996
1986-07-11,6902.6499
1986-07-12,6902.54004
1986-07-13,6902.5498
1986-07-14,6902.5498
1986-07-15,6902.72998
1986-07-16,6902.70996
1986-07-17,6902.68018
1986-07-18,6902.62012
1986-07-19,6902.6499
1986-07-20,6902.66016
1986-07-21,6902.68994
1986-07-22,6902.81006
1986-07-23,6902.83984
1986-07-24,6902.7998
1986-07-25,6902.75977
1986-07-26,6902.75
1986-07-27,6902.68994
1986-07-28,6902.62012
1986-07-29,6902.58008
1986-07-30,6902.5
1986-07-31,6902.41992
1986-08-01,6902.31006
1986-08-02,6902.18018
1986-08-03,6902.12012
1986-08-04,6901.97021
1986-08-05,6901.8501
1986-08-06,6901.7998
1986-08-07,6901.75
1986-08-08,6901.68994
1986-08-09,6901.6001
1986-08-10,6901.52002
1986-08-11,6901.4502
1986-08-12,6901.43994
1986-08-13,6901.3999
1986-08-14,6901.3501
1986-08-15,6901.27002
1986-08-16,6901.25
1986-08-17,6901.2002
1986-08-18,6901.12012
1986-08-19,6901.06006
1986-08-20,6901.06982
1986-08-21,6901.04004
1986-08-22,6901.00977
1986-08-23,6901.0
1986-08-24,6900.99023
1986-08-25,6900.95996
1986-08-26,6900.93018
1986-08-27,6900.8501
1986-08-28,6900.75977
1986-08-29,6900.68018
1986-08-30,6900.56006
1986-08-31,6900.43018
1986-09-01,6900.2998
1986-09-02,6900.16992
1986-09-03,6900.02979
1986-09-04,6899.8501
1986-09-05,6899.68994
1986-09-06,6899.54004
1986-09-07,6899.43018
1986-09-08,6899.2998
1986-09-09,6899.47021
1986-09-10,6899.7002
1986-09-11,6899.70996
1986-09-12,6899.68994
1986-09-13,6899.62988
1986-09-14,6899.58008
1986-09-15,6899.50977
1986-09-16,6899.37012
1986-09-17,6899.27002
1986-09-18,6899.16016
1986-09-19,6899.06006
1986-09-20,6898.9502
1986-09-21,6898.81006
1986-09-22,6898.83008
1986-09-23,6899.06982
1986-09-24,6899.3999
1986-09-25,6899.64014
1986-09-26,6899.77979
1986-09-27,6899.8999
1986-09-28,6900.02002
1986-09-29,6900.18994
1986-09-30,6900.3501
1986-10-01,6900.38
1986-10-02,6900.51
1986-10-03,6900.62
1986-10-04,6900.7
1986-10-05,6900.82
1986-10-06,6900.89
1986-10-07,6900.97
1986-10-08,6901.05
1986-10-09,6901.2
1986-10-10,6901.35
1986-10-11,6901.68
1986-10-12,6901.85
1986-10-13,6902.07
1986-10-14,6901.97
1986-10-15,6901.95
1986-10-16,6901.91
1986-10-17,6901.92
1986-10-18,6901.84
1986-10-19,6901.82
1986-10-20,6901.78
1986-10-21,6901.7
1986-10-22,6901.8
1986-10-23,6901.77
1986-10-24,6901.76
1986-10-25,6901.7
1986-10-26,6901.66
1986-10-27,6901.65
1986-10-28,6901.68
1986-10-29,6901.7
1986-10-30,6901.71
1986-10-31,6901.78
1986-11-01,6902.05
1986-11-02,6902.2
1986-11-03,6902.25
1986-11-04,6902.23
1986-11-05,6902.17
1986-11-06,6902.12
1986-11-07,6902.0
1986-11-08,6901.95
1986-11-09,6901.87
1986-11-10,6901.78
1986-11-11,6901.89
1986-11-12,6902.0
1986-11-13,6902.08
1986-11-14,6902.16
1986-11-15,6902.2
1986-11-16,6902.22
1986-11-17,6902.3
1986-11-18,6902.71
1986-11-19,6902.89
1986-11-20,6902.87
1986-11-21,6902.97
1986-11-22,6903.01
1986-11-23,6902.93
1986-11-24,6902.8
1986-11-25,6902.85
1986-11-26,6902.86
1986-11-27,6902.86
1986-11-28,6902.87
1986-11-29,6902.87
1986-11-30,6902.88
1986-12-01,6902.84
1986-12-02,6902.8
1986-12-03,6902.82
1986-12-04,6902.77
1986-12-05,6902.77
1986-12-06,6902.76
1986-12-07,6902.76
1986-12-08,6902.74
1986-12-09,6902.72
1986-12-10,6902.69
1986-12-11,6902.67
1986-12-12,6902.67
1986-12-13,6902.68
1986-12-14,6902.68
1986-12-15,6902.71
1986-12-16,6902.75
1986-12-17,6902.77
1986-12-18,6902.79
1986-12-19,6902.79
1986-12-20,6902.79
1986-12-21,6902.79
1986-12-22,6902.75
1986-12-23,6902.7
1986-12-24,6902.71
1986-12-25,6902.72
1986-12-26,6902.69
1986-12-27,6902.66
1986-12-28,6902.63
1986-12-29,6902.65
1986-12-30,6902.64
1986-12-31,6902.63
1987-01-01,6902.64
1987-01-02,6902.65
1987-01-03,6902.67
1987-01-04,6902.69
1987-01-05,6902.68
1987-01-06,6902.68
1987-01-07,6902.69
1987-01-08,6902.7
1987-01-09,6902.69
1987-01-10,6902.68
1987-01-11,6902.67
1987-01-12,6902.68
1987-01-13,6902.69
1987-01-14,6902.72
1987-01-15,6902.75
1987-01-16,6902.73
1987-01-17,6902.71
1987-01-18,6902.7
1987-01-19,6902.72
1987-01-20,6902.71
1987-01-21,6902.69
1987-01-22,6902.67
1987-01-23,6902.68
1987-01-24,6902.69
1987-01-25,6902.7
1987-01-26,6902.68
1987-01-27,6902.69
1987-01-28,6902.7
1987-01-29,6902.71
1987-01-30,6902.7
1987-01-31,6902.68
1987-02-01,6902.66
1987-02-02,6902.65
1987-02-03,6902.64
1987-02-04,6902.62
1987-02-05,6902.61
1987-02-06,6902.61
1987-02-07,6902.61
1987-02-08,6902.62
1987-02-09,6902.64
1987-02-10,6902.72
1987-02-11,6902.74
1987-02-12,6902.79
1987-02-13,6902.84
1987-02-14,6902.89
1987-02-15,6902.94
1987-02-16,6902.94
1987-02-17,6902.92
1987-02-18,6902.88
1987-02-19,6902.86
1987-02-20,6902.82
1987-02-21,6902.79
1987-02-22,6902.76
1987-02-23,6902.73
1987-02-24,6902.76
1987-02-25,6902.79
1987-02-26,6902.78
1987-02-27,6902.74
1987-02-28,6902.7
1987-03-01,6902.66
1987-03-02,6902.66
1987-03-03,6902.69
1987-03-04,6902.71
1987-03-05,6902.74
1987-03-06,6902.83
1987-03-07,6902.95
1987-03-08,6902.99
1987-03-09,6902.94
1987-03-10,6902.84
1987-03-11,6902.83
1987-03-12,6902.83
1987-03-13,6902.9
1987-03-14,6902.95
1987-03-15,6902.98
1987-03-16,6902.85
1987-03-17,6902.79
1987-03-18,6902.82
1987-03-19,6902.8
1987-03-20,6902.73
1987-03-21,6902.72
1987-03-22,6902.65
1987-03-23,6902.6
1987-03-24,6902.49
1987-03-25,6902.38
1987-03-26,6902.26
1987-03-27,6902.2
1987-03-28,6902.1
1987-03-29,6902.0
1987-03-30,6901.98
1987-03-31,6902.02
1987-04-01,6902.17
1987-04-02,6902.29
1987-04-03,6902.63
1987-04-04,6902.56
1987-04-05,6902.52
1987-04-06,6902.52
1987-04-07,6902.58
1987-04-08,6902.85
1987-04-09,6903.1
1987-04-10,6902.94
1987-04-11,6902.6
1987-04-12,6902.37
1987-04-13,6902.4
1987-04-14,6902.63
1987-04-15,6903.3
1987-04-16,6904.21
1987-04-17,6904.85
1987-04-18,6905.41
1987-04-19,6905.84
1987-04-20,6906.2
1987-04-21,6906.52
1987-04-22,6907.15
1987-04-23,6907.76
1987-04-24,6908.13
1987-04-25,6908.73
1987-04-26,6909.24
1987-04-27,6909.83
1987-04-28,6910.45
1987-04-29,6911.1
1987-04-30,6911.8
1987-05-01,6912.33
1987-05-02,6912.81
1987-05-03,6912.99
1987-05-04,6913.14
1987-05-05,6913.37
1987-05-06,6913.72
1987-05-07,6914.16
1987-05-08,6914.51
1987-05-09,6914.71
1987-05-10,6915.05
1987-05-11,6915.38
1987-05-12,6915.76
1987-05-13,6916.08
1987-05-14,6916.55
1987-05-15,6917.2
1987-05-16,6918.05
1987-05-17,6918.45
1987-05-18,6918.94
1987-05-19,6919.15
1987-05-20,6918.85
1987-05-21,6919.03
1987-05-22,6919.0
1987-05-23,6918.97
1987-05-24,6918.87
1987-05-25,6918.6
1987-05-26,6918.61
1987-05-27,6918.56
1987-05-28,6918.45
1987-05-29,6918.25
1987-05-30,6918.06
1987-05-31,6917.88
1987-06-01,6917.88
1987-06-02,6918.11
1987-06-03,6918.48